SCP
0 0 0 0 -0 -0 -0 -0 -0 -0 -0 -0 0 -0 -0 -0 0 -0 0 -0 -0 -0 -0 -0 0 0 0 0 0 0 0 0 0 -0 -0 0 0 -0 -0 -0 -0 0 0 -0 -0
-0 -0 -0 -0 -0 -0 -0 -0 -0 -0 -0 -0 0 0 0 0 0 -0 -0 0 -0 -0 -0 -0 -0 0 0 0 0 -0 0 0 -0 0 -0 0 -0 0 0 -0 0 0 -0 -0 -0
-0 -0 -0 -0 -0 -0 -0 -0 -0 -0 -0 -0 -0 0 0 0 0 0 0 0 0 0 0 0 0 0 -0 0 -0 -0 0 -0 -0 -0 0 -0 -0 0 0 -0 -0 -0 -0 -0 -0
-0 -0 -0 -0 -0 -0 -0 -0 -0 -0 -0 -0 -0 -0 0 0 0 0 -0 -0 -0 0 0 0 0 0 -0 -0 -0 -0 -0 -0 0 0 0 0 0 0 -0 0 -0 -0 -0 -0 -0
-0 -0 -0 -0 -0 -0 -0 -0 -0 -0 -0 -0 -0 -0 -0 0 0 0 -0 -0 0 0 0 -0 0 0 0 0 0 -0 0 0 0 0 0 0 -0 0 -0 -0 -0 -0 -0 -0 -0
-0 -0 -0 -0 -0 -0 -0 -0 -0 -0 -0 0 0 0 -0 0 0 0 -0 -0 0 0 0 0 0 0 0 0 0 0 0 0 0 0 0 -0 -0 -0 0 -0 -0 -0 -0 -0 -0
-0 -0 -0 -0 -0 -0 -0 -0 -0 0 -0 -0 0 0 -0 -0 0 -0 -0 0 0 0 0 0 0 0 0 0 0 0 0 0 0 0 0 0 0 0 0 -0 -0 -0 -0 -0 -0
-0 -0 -0 -0 -0 -0 -0 -0 -0 0 0 0 0 0 -0 0 -0 -0 0 0 0 0 0 0 0 0 0 0 0 0 0 0 0 0 0 0 0 0 0 -0 -0 -0 -0 -0 -0
-0 -0 -0 -0 -0 -0 -0 -0 -0 0 0 0 0 0 0 0 0 0 -0 0 -0 0 0 0 0 0 0 0 0 0 0 0 0 0 0 0 0 0 0 0 -0 -0 -0 -0 -0
-0 -0 -0 -0 -0 -0 -0 0 0 -0 -0 -0 -0 0 0 0 0 0 0 0 0 0 0 0 0 0 0 0 0 0 0 0 0 0 0 0 0 -0 0 0 0 -0 -0 -0 -0
-0 -0 -0 -0 -0 -0 -0 -0 -0 -0 0 -0 0 0 0 0 0 0 0 0 0 0 0 0 0 0 0 0 0 0 0 0 0 0 0 0 0 0 0 0 0 0 -0 -0 -0
-0 -0 -0 -0 -0 -0 -0 0 -0 0 0 0 -0 -0 -0 0 0 0 0 0 0 0 0 0 0 0 0 0 0 0 0 0 0 0 0 0 0 0 0 0 0 0 0 -0 -0
-0 -0 -0 -0 -0 -0 -0 0 0 0 0 0 -0 -0 0 -0 0 0 0 0 0 0 0 0 0 0 0 0 0 0 0 0 0 0 0 0 0 0 0 0 0 0 0 0 0
-0 -0 -0 -0 0 0 0 0 0 0 0 0 0 0 0 -0 0 0 0 0 0 0 0 0 0 0 0 0 0 0 0 0 0 0 0 0 0 0 0 0 0 0 0 0 0
-0 -0 -0 0 0 0 0 0 0 0 0 0 0 0 0 0 0 0 0 0 0 0 0 0 0 0 0 0 0 0 0 0 0 0 0 0 0 0 0 0 0 0 0 0 0
-0 -0 -0 0 0 0 0 0 0 0 0 0 0 0 0 -0 0 -0 0 0 0 0 0 -0 0 0 0 0 0 0 0 0 0 0 0 0 0 0 0 0 0 0 0 0 0
-0 -0 0 0 0 0 0 0 0 0 0 0 0 0 0 0 0 0 0 0 0 0 0 0 0 0 0 0 0 0 0 0 0 0 0 0 0 0 0 0 0 0 0 0 0
-0 -0 0 0 0 0 0 0 0 0 0 0 0 0 0 0 0 0 0 0 0 0 0 0 0 0 0 0 0 0 0 0 0 0 0 0 0 0 0 0 0 0 0 0 0
-0 0 0 0 0 0 0 0 0 0 0 0 0 0 0 0 0 0 0 0 0 0 0 0 0 0 -0 -0 0 0 0 0 0 0 0 0 0 0 0 0 0 0 0 0 0
0 0 0 0 0 0 0 0 0 0 0 0 0 0 0 0 0 0 0 0 0 0 0 0 0 0 0 0 0 0 0 0 0 0 0 0 0 0 0 0 0 0 0 0 0
0 0 0 0 0 0 0 0 0 0 0 0 0 0 0 0 0 0 0 0 0 0 0 0 0 0 0 0 0 0 0 0 0 0 0 0 0 0 0 0 0 0 0 0 0
0 0 0 0 0 0 0 0 0 0 0 0 0 0 0 0 0 0 0 0 0 0 0 0 0 0 0 0 0 0 0 0 0 0 0 0 0 0 0 0 0 0 0 0 0
0 0 0 0 0 0 0 0 0 0 0 0 0 0 0 0 0 0 0 0 0 0 0 0 0 0 0 0 0 0 0 0 0 0 0 0 0 0 0 0 0 0 0 0 0
0 0 0 0 0 0 0 0 0 0 0 0 0 0 0 0 0 0 0 0 0 0 0 0 0 0 0 0 0 0 0 0 0 0 0 0 0 0 0 0 0 0 0 0 0
0 0 0 0 0 0 0 0 0 0 0 0 0 0 0 0 0 0 0 0 0 0 0 0 0 0 0 0 0 0 0 0 0 0 0 0 0 0 0 0 0 0 0 0 0
0 0 0 0 0 0 0 0 0 0 0 0 0 0 0 0 0 0 0 0 0 0 0 0 0 0 0 0 0 0 0 0 0 0 0 0 0 0 0 0 0 0 0 0 0
0 0 0 0 0 0 0 0 0 0 0 0 0 0 0 0 0 0 0 0 0 0 0 0 0 0 0 0 0 0 0 0 0 0 0 0 0 0 0 0 0 0 0 0 0
Wind_Speed_500mb
41 41 41 40 39 39 38 36 35 33 28 25 24 21 21 19 22 20 16 12 23 26 33 31 23 17 15 8 4 5 3 2 3 3 5 9 5 14 4 11 11 12 7 17 42
42 41 41 41 41 40 39 38 35 33 27 24 23 21 19 19 17 9 11 23 24 23 32 29 25 20 9 5 2 4 4 8 6 7 4 14 11 26 12 19 13 11 9 42 45
43 43 43 43 43 42 40 38 36 32 26 23 22 20 18 16 5 11 10 26 29 28 25 23 20 17 6 6 5 5 7 5 13 21 10 6 9 19 16 17 23 22 30 53 51
44 44 44 44 44 44 42 38 35 28 28 25 21 18 15 4 4 7 12 27 30 22 25 26 23 10 6 8 5 8 14 13 9 3 6 8 8 14 32 10 5 21 24 57 59
45 46 44 44 45 45 42 38 31 29 28 24 18 14 9 2 6 3 16 26 23 23 22 26 21 10 5 5 8 8 16 13 23 26 18 18 23 14 30 28 14 26 33 56 56
45 46 46 45 46 45 42 35 30 30 29 18 10 9 7 5 5 9 16 28 20 22 24 25 9 7 5 3 8 5 15 33 20 15 11 8 11 14 16 33 25 33 41 54 57
44 46 47 47 45 45 40 34 34 29 22 7 5 8 11 9 10 15 18 22 14 16 26 21 15 5 8 3 5 7 13 19 8 6 4 13 9 23 11 25 31 38 42 54 56
45 46 47 47 44 45 36 37 35 22 12 6 9 9 5 13 16 17 20 20 17 15 12 10 14 7 2 4 4 4 4 10 7 2 2 8 17 7 18 30 33 39 43 53 59
47 47 46 47 44 40 35 40 26 19 2 7 8 6 4 16 13 17 17 8 15 17 17 16 5 2 2 1 2 5 9 6 2 2 3 6 8 3 20 32 36 47 51 53 56
48 47 45 46 46 32 35 37 26 5 8 22 5 3 8 12 18 9 23 12 10 21 12 4 4 4 4 3 11 2 3 2 8 1 10 15 29 26 12 30 44 40 48 55 60
49 49 44 44 44 26 34 24 16 4 26 5 4 1 4 7 10 12 22 29 17 10 8 4 8 13 11 7 4 4 6 12 16 14 7 15 25 25 16 29 40 49 51 59 71
49 49 45 42 36 23 26 13 18 18 17 16 19 33 26 10 5 15 22 17 11 8 8 6 16 15 6 11 11 8 9 16 18 8 14 10 18 20 15 24 41 44 48 63 63
49 50 47 41 22 29 16 18 23 27 8 11 5 2 8 30 9 18 33 17 8 9 10 12 4 15 15 12 13 13 15 9 10 6 9 8 11 7 8 18 22 38 46 53 59
47 49 46 42 11 27 7 22 24 14 5 2 2 5 12 13 7 19 34 17 5 15 13 12 5 13 11 11 15 8 17 13 7 7 6 4 14 9 7 17 19 32 43 51 53
44 48 43 38 32 23 13 18 18 4 4 11 6 4 12 10 4 13 30 12 17 13 10 3 9 10 10 9 18 6 8 6 3 7 5 8 9 4 5 17 23 27 39 44 49
42 43 44 37 28 11 14 12 1 3 2 6 6 3 5 3 2 7 9 12 5 9 5 14 5 9 13 5 15 3 5 4 4 5 9 4 9 10 6 11 11 14 14 24 32
41 41 39 29 19 15 7 1 3 4 7 10 6 8 3 1 4 3 10 15 11 8 9 5 10 5 10 13 5 4 5 9 11 10 13 8 7 18 17 24 10 19 27 28 30
42 38 21 6 8 0 3 3 5 3 3 5 7 4 4 5 4 6 7 7 7 4 2 7 4 8 8 9 4 8 5 9 13 15 21 7 10 13 14 16 12 12 18 21 29
39 22 7 6 10 8 3 3 1 4 6 11 7 3 3 2 2 3 8 5 6 7 7 8 9 4 10 7 7 6 12 3 4 3 8 9 10 21 9 22 25 30 32 38 38
38 9 10 3 8 8 3 3 2 5 8 2 3 3 2 5 1 3 4 8 8 10 9 0 9 3 8 2 7 8 11 5 4 9 22 11 8 16 3 19 22 30 37 41 46
26 4 9 3 9 4 2 3 3 7 7 3 2 3 1 2 2 3 3 4 8 11 7 4 5 3 5 3 6 2 4 2 3 5 17 24 13 7 18 17 18 27 36 42 45
16 3 8 1 3 4 3 1 5 4 9 3 2 3 2 5 4 4 4 4 16 4 2 5 1 8 16 12 7 5 3 6 6 8 2 6 11 16 21 20 20 23 29 33 38
27 10 9 1 0 2 3 3 3 6 7 7 4 4 5 4 2 2 5 2 17 9 5 6 1 10 9 7 8 8 7 8 2 3 14 14 8 14 17 21 22 26 30 34 38
13 5 8 12 10 2 4 4 5 9 5 5 5 1 3 4 7 7 3 1 10 5 9 1 4 12 16 13 5 16 24 16 9 12 25 26 34 24 19 20 22 25 29 32 38
10 3 4 5 7 7 3 4 3 4 8 10 3 9 2 3 2 4 2 4 3 4 4 4 7 8 20 30 30 27 29 31 32 36 29 37 40 20 20 22 22 19 29 35 38
5 4 5 2 6 5 3 1 2 3 9 5 2 5 3 2 4 2 4 2 4 3 3 5 6 3 20 24 26 33 38 40 39 35 37 31 33 8 16 21 22 19 26 32 37
2 3 3 2 1 3 3 1 3 4 6 10 5 1 3 5 8 10 14 16 11 7 1 5 5 3 7 9 12 20 21 17 22 7 7 12 8 16 19 25 31 32 24 35 40
Wind_Direction_500mb
358 358 357 354 351 347 344 342 340 339 336 329 326 324 326 318 313 292 260 197 188 177 176 181 179 175 163 163 145 144 182 161 274 195 112 174 192 144 192 173 183 187 153 174 162
354 355 354 350 349 345 340 338 336 336 334 328 323 321 327 326 329 8 186 177 172 173 174 180 176 171 138 135 180 242 226 202 221 180 188 188 204 167 173 175 200 177 168 165 166
352 352 351 347 346 341 338 336 334 333 331 324 321 321 329 337 49 25 138 163 158 154 180 180 170 155 116 134 185 177 249 182 240 234 193 216 224 182 178 199 215 195 167 171 175
349 349 348 344 342 339 337 334 331 331 326 316 312 315 323 351 95 59 132 167 168 159 167 147 147 134 146 173 184 270 258 245 298 169 167 230 199 203 207 231 160 196 195 179 184
347 345 344 342 338 339 336 331 330 330 328 314 294 297 312 247 126 128 171 168 181 172 169 161 159 142 151 152 157 226 282 294 288 293 273 241 210 212 223 224 204 175 183 187 190
344 343 343 341 341 339 334 330 329 325 322 313 272 281 284 226 129 131 172 181 189 182 174 176 170 158 98 183 217 245 268 287 293 295 274 235 217 197 238 211 193 180 189 193 197
342 343 343 341 342 337 335 335 327 324 325 316 263 274 264 218 152 132 128 184 177 191 190 176 135 71 337 199 311 309 300 307 10 353 314 157 159 230 211 182 177 184 190 197 204
341 343 343 342 342 340 340 340 332 330 326 279 273 271 249 189 173 153 144 174 186 180 148 173 222 284 230 317 8 317 276 264 21 71 77 271 221 196 199 185 186 189 191 202 207
340 343 343 344 342 344 344 342 330 328 295 323 294 214 194 176 159 171 160 152 173 172 150 139 136 157 156 152 241 23 256 262 303 356 146 272 275 40 204 206 206 199 198 205 213
339 341 343 345 344 345 348 344 333 307 261 309 245 167 160 146 152 167 187 159 145 160 158 166 116 162 117 221 256 254 262 271 288 131 309 267 263 268 230 224 235 219 209 209 214
338 338 341 345 347 344 355 355 2 337 322 208 161 175 185 157 188 199 175 173 129 150 155 129 206 220 234 198 175 191 265 283 269 261 250 236 264 271 261 232 241 235 219 218 222
335 335 339 346 349 354 355 44 29 327 310 302 268 251 231 185 154 177 164 155 168 173 132 164 244 228 165 181 207 216 262 261 280 236 211 239 257 287 254 251 245 248 237 231 234
333 333 335 345 350 351 6 19 349 341 268 296 289 277 200 202 212 193 174 166 153 157 184 220 216 132 178 191 213 226 230 247 268 278 240 266 250 267 263 267 266 250 247 242 235
332 329 332 340 352 347 360 346 333 333 320 40 125 132 130 156 220 186 183 168 135 213 178 239 204 218 191 222 202 268 209 254 249 239 225 295 283 264 274 275 247 244 241 245 239
330 326 328 330 325 332 317 331 324 337 136 358 75 121 153 181 119 196 188 183 177 175 184 225 184 166 195 231 187 256 174 269 195 169 231 183 260 254 288 282 274 261 248 250 251
329 326 321 322 321 308 313 321 226 244 217 44 88 99 171 215 127 117 167 205 148 166 236 264 236 217 233 215 199 114 208 108 113 165 245 234 250 261 253 277 294 291 311 299 303
330 325 319 317 307 299 304 155 211 210 340 6 0 337 243 116 92 68 163 168 209 190 232 277 240 254 210 251 166 190 261 262 252 239 277 122 216 274 255 263 281 349 3 5 3
334 329 328 343 10 10 140 140 211 61 340 347 341 325 103 7 49 44 100 143 68 48 137 290 279 171 173 202 244 178 218 283 285 277 289 138 239 278 271 26 4 66 38 27 13
339 341 38 79 48 33 126 179 58 183 308 332 303 122 73 60 75 98 68 49 41 16 235 195 259 299 225 239 230 153 222 351 207 134 253 270 256 274 273 72 46 32 12 15 7
343 358 18 119 15 11 96 144 143 251 316 271 315 21 110 8 95 83 109 12 348 30 343 201 280 273 306 304 86 244 138 231 213 253 267 232 263 272 321 42 31 25 12 4 5
347 34 360 126 349 18 164 168 255 269 290 257 280 296 29 48 43 58 66 42 356 336 51 6 252 274 268 230 332 222 223 57 296 265 277 280 270 24 88 53 37 24 10 3 359
4 322 350 272 356 31 128 228 325 307 9 25 85 328 309 56 68 105 126 46 356 308 15 32 205 258 276 303 322 333 55 72 276 261 247 296 267 84 76 55 35 22 7 0 358
343 313 357 171 199 109 321 300 291 343 15 19 88 17 43 100 171 88 121 151 10 42 35 358 342 304 271 180 94 74 86 58 34 224 243 267 270 135 52 28 21 10 4 359 356
354 334 13 69 67 39 12 8 321 9 63 32 14 99 138 123 41 143 148 76 357 55 25 217 217 248 270 291 285 291 292 306 298 268 277 259 284 266 346 7 11 7 3 359 1
5 55 27 3 49 15 334 338 313 5 15 29 78 50 40 161 99 93 56 317 170 82 58 24 261 227 275 285 292 280 275 277 270 267 260 277 280 314 344 349 350 349 358 358 358
19 16 348 271 304 295 1 143 298 8 353 13 58 42 45 105 39 94 6 224 281 76 64 20 269 277 282 276 275 278 280 286 283 280 271 284 279 15 334 339 343 329 348 350 349
22 341 344 333 358 223 166 148 89 336 104 55 331 278 100 65 323 292 269 264 266 284 279 260 240 216 264 343 302 263 265 280 289 38 321 307 0 339 335 340 336 322 326 338 337
Wind_Speed_850mb
41 41 41 40 39 39 38 36 35 33 28 25 24 21 21 19 22 20 16 12 23 26 33 31 23 17 15 8 4 5 3 2 3 3 5 9 5 14 4 11 11 12 7 17 42
42 41 41 41 41 40 39 38 35 33 27 24 23 21 19 19 17 9 11 23 24 23 32 29 25 20 9 5 2 4 4 8 6 7 4 14 11 26 12 19 13 11 9 42 45
43 43 43 43 43 42 40 38 36 32 26 23 22 20 18 16 5 11 10 26 29 28 25 23 20 17 6 6 5 5 7 5 13 21 10 6 9 19 16 17 23 22 30 53 51
44 44 44 44 44 44 42 38 35 28 28 25 21 18 15 4 4 7 12 27 30 22 25 26 23 10 6 8 5 8 14 13 9 3 6 8 8 14 32 10 5 21 24 57 59
45 46 44 44 45 45 42 38 31 29 28 24 18 14 9 2 6 3 16 26 23 23 22 26 21 10 5 5 8 8 16 13 23 26 18 18 23 14 30 28 14 26 33 56 56
45 46 46 45 46 45 42 35 30 30 29 18 10 9 7 5 5 9 16 28 20 22 24 25 9 7 5 3 8 5 15 33 20 15 11 8 11 14 16 33 25 33 41 54 57
44 46 47 47 45 45 40 34 34 29 22 7 5 8 11 9 10 15 18 22 14 16 26 21 15 5 8 3 5 7 13 19 8 6 4 13 9 23 11 25 31 38 42 54 56
45 46 47 47 44 45 36 37 35 22 12 6 9 9 5 13 16 17 20 20 17 15 12 10 14 7 2 4 4 4 4 10 7 2 2 8 17 7 18 30 33 39 43 53 59
47 47 46 47 44 40 35 40 26 19 2 7 8 6 4 16 13 17 17 8 15 17 17 16 5 2 2 1 2 5 9 6 2 2 3 6 8 3 20 32 36 47 51 53 56
48 47 45 46 46 32 35 37 26 5 8 22 5 3 8 12 18 9 23 12 10 21 12 4 4 4 4 3 11 2 3 2 8 1 10 15 29 26 12 30 44 40 48 55 60
49 49 44 44 44 26 34 24 16 4 26 5 4 1 4 7 10 12 22 29 17 10 8 4 8 13 11 7 4 4 6 12 16 14 7 15 25 25 16 29 40 49 51 59 71
49 49 45 42 36 23 26 13 18 18 17 16 19 33 26 10 5 15 22 17 11 8 8 6 16 15 6 11 11 8 9 16 18 8 14 10 18 20 15 24 41 44 48 63 63
49 50 47 41 22 29 16 18 23 27 8 11 5 2 8 30 9 18 33 17 8 9 10 12 4 15 15 12 13 13 15 9 10 6 9 8 11 7 8 18 22 38 46 53 59
47 49 46 42 11 27 7 22 24 14 5 2 2 5 12 13 7 19 34 17 5 15 13 12 5 13 11 11 15 8 17 13 7 7 6 4 14 9 7 17 19 32 43 51 53
44 48 43 38 32 23 13 18 18 4 4 11 6 4 12 10 4 13 30 12 17 13 10 3 9 10 10 9 18 6 8 6 3 7 5 8 9 4 5 17 23 27 39 44 49
42 43 44 37 28 11 14 12 1 3 2 6 6 3 5 3 2 7 9 12 5 9 5 14 5 9 13 5 15 3 5 4 4 5 9 4 9 10 6 11 11 14 14 24 32
41 41 39 29 19 15 7 1 3 4 7 10 6 8 3 1 4 3 10 15 11 8 9 5 10 5 10 13 5 4 5 9 11 10 13 8 7 18 17 24 10 19 27 28 30
42 38 21 6 8 0 3 3 5 3 3 5 7 4 4 5 4 6 7 7 7 4 2 7 4 8 8 9 4 8 5 9 13 15 21 7 10 13 14 16 12 12 18 21 29
39 22 7 6 10 8 3 3 1 4 6 11 7 3 3 2 2 3 8 5 6 7 7 8 9 4 10 7 7 6 12 3 4 3 8 9 10 21 9 22 25 30 32 38 38
38 9 10 3 8 8 3 3 2 5 8 2 3 3 2 5 1 3 4 8 8 10 9 0 9 3 8 2 7 8 11 5 4 9 22 11 8 16 3 19 22 30 37 41 46
26 4 9 3 9 4 2 3 3 7 7 3 2 3 1 2 2 3 3 4 8 11 7 4 5 3 5 3 6 2 4 2 3 5 17 24 13 7 18 17 18 27 36 42 45
16 3 8 1 3 4 3 1 5 4 9 3 2 3 2 5 4 4 4 4 16 4 2 5 1 8 16 12 7 5 3 6 6 8 2 6 11 16 21 20 20 23 29 33 38
27 10 9 1 0 2 3 3 3 6 7 7 4 4 5 4 2 2 5 2 17 9 5 6 1 10 9 7 8 8 7 8 2 3 14 14 8 14 17 21 22 26 30 34 38
13 5 8 12 10 2 4 4 5 9 5 5 5 1 3 4 7 7 3 1 10 5 9 1 4 12 16 13 5 16 24 16 9 12 25 26 34 24 19 20 22 25 29 32 38
10 3 4 5 7 7 3 4 3 4 8 10 3 9 2 3 2 4 2 4 3 4 4 4 7 8 20 30 30 27 29 31 32 36 29 37 40 20 20 22 22 19 29 35 38
5 4 5 2 6 5 3 1 2 3 9 5 2 5 3 2 4 2 4 2 4 3 3 5 6 3 20 24 26 33 38 40 39 35 37 31 33 8 16 21 22 19 26 32 37
2 3 3 2 1 3 3 1 3 4 6 10 5 1 3 5 8 10 14 16 11 7 1 5 5 3 7 9 12 20 21 17 22 7 7 12 8 16 19 25 31 32 24 35 40
Wind_Direction_850mb
358 358 357 354 351 347 344 342 340 339 336 329 326 324 326 318 313 292 260 197 188 177 176 181 179 175 163 163 145 144 182 161 274 195 112 174 192 144 192 173 183 187 153 174 162
354 355 354 350 349 345 340 338 336 336 334 328 323 321 327 326 329 8 186 177 172 173 174 180 176 171 138 135 180 242 226 202 221 180 188 188 204 167 173 175 200 177 168 165 166
352 352 351 347 346 341 338 336 334 333 331 324 321 321 329 337 49 25 138 163 158 154 180 180 170 155 116 134 185 177 249 182 240 234 193 216 224 182 178 199 215 195 167 171 175
349 349 348 344 342 339 337 334 331 331 326 316 312 315 323 351 95 59 132 167 168 159 167 147 147 134 146 173 184 270 258 245 298 169 167 230 199 203 207 231 160 196 195 179 184
347 345 344 342 338 339 336 331 330 330 328 314 294 297 312 247 126 128 171 168 181 172 169 161 159 142 151 152 157 226 282 294 288 293 273 241 210 212 223 224 204 175 183 187 190
344 343 343 341 341 339 334 330 329 325 322 313 272 281 284 226 129 131 172 181 189 182 174 176 170 158 98 183 217 245 268 287 293 295 274 235 217 197 238 211 193 180 189 193 197
342 343 343 341 342 337 335 335 327 324 325 316 263 274 264 218 152 132 128 184 177 191 190 176 135 71 337 199 311 309 300 307 10 353 314 157 159 230 211 182 177 184 190 197 204
341 343 343 342 342 340 340 340 332 330 326 279 273 271 249 189 173 153 144 174 186 180 148 173 222 284 230 317 8 317 276 264 21 71 77 271 221 196 199 185 186 189 191 202 207
340 343 343 344 342 344 344 342 330 328 295 323 294 214 194 176 159 171 160 152 173 172 150 139 136 157 156 152 241 23 256 262 303 356 146 272 275 40 204 206 206 199 198 205 213
339 341 343 345 344 345 348 344 333 307 261 309 245 167 160 146 152 167 187 159 145 160 158 166 116 162 117 221 256 254 262 271 288 131 309 267 263 268 230 224 235 219 209 209 214
338 338 341 345 347 344 355 355 2 337 322 208 161 175 185 157 188 199 175 173 129 150 155 129 206 220 234 198 175 191 265 283 269 261 250 236 264 271 261 232 241 235 219 218 222
335 335 339 346 349 354 355 44 29 327 310 302 268 251 231 185 154 177 164 155 168 173 132 164 244 228 165 181 207 216 262 261 280 236 211 239 257 287 254 251 245 248 237 231 234
333 333 335 345 350 351 6 19 349 341 268 296 289 277 200 202 212 193 174 166 153 157 184 220 216 132 178 191 213 226 230 247 268 278 240 266 250 267 263 267 266 250 247 242 235
332 329 332 340 352 347 360 346 333 333 320 40 125 132 130 156 220 186 183 168 135 213 178 239 204 218 191 222 202 268 209 254 249 239 225 295 283 264 274 275 247 244 241 245 239
330 326 328 330 325 332 317 331 324 337 136 358 75 121 153 181 119 196 188 183 177 175 184 225 184 166 195 231 187 256 174 269 195 169 231 183 260 254 288 282 274 261 248 250 251
329 326 321 322 321 308 313 321 226 244 217 44 88 99 171 215 127 117 167 205 148 166 236 264 236 217 233 215 199 114 208 108 113 165 245 234 250 261 253 277 294 291 311 299 303
330 325 319 317 307 299 304 155 211 210 340 6 0 337 243 116 92 68 163 168 209 190 232 277 240 254 210 251 166 190 261 262 252 239 277 122 216 274 255 263 281 349 3 5 3
334 329 328 343 10 10 140 140 211 61 340 347 341 325 103 7 49 44 100 143 68 48 137 290 279 171 173 202 244 178 218 283 285 277 289 138 239 278 271 26 4 66 38 27 13
339 341 38 79 48 33 126 179 58 183 308 332 303 122 73 60 75 98 68 49 41 16 235 195 259 299 225 239 230 153 222 351 207 134 253 270 256 274 273 72 46 32 12 15 7
343 358 18 119 15 11 96 144 143 251 316 271 315 21 110 8 95 83 109 12 348 30 343 201 280 273 306 304 86 244 138 231 213 253 267 232 263 272 321 42 31 25 12 4 5
347 34 360 126 349 18 164 168 255 269 290 257 280 296 29 48 43 58 66 42 356 336 51 6 252 274 268 230 332 222 223 57 296 265 277 280 270 24 88 53 37 24 10 3 359
4 322 350 272 356 31 128 228 325 307 9 25 85 328 309 56 68 105 126 46 356 308 15 32 205 258 276 303 322 333 55 72 276 261 247 296 267 84 76 55 35 22 7 0 358
343 313 357 171 199 109 321 300 291 343 15 19 88 17 43 100 171 88 121 151 10 42 35 358 342 304 271 180 94 74 86 58 34 224 243 267 270 135 52 28 21 10 4 359 356
354 334 13 69 67 39 12 8 321 9 63 32 14 99 138 123 41 143 148 76 357 55 25 217 217 248 270 291 285 291 292 306 298 268 277 259 284 266 346 7 11 7 3 359 1
5 55 27 3 49 15 334 338 313 5 15 29 78 50 40 161 99 93 56 317 170 82 58 24 261 227 275 285 292 280 275 277 270 267 260 277 280 314 344 349 350 349 358 358 358
19 16 348 271 304 295 1 143 298 8 353 13 58 42 45 105 39 94 6 224 281 76 64 20 269 277 282 276 275 278 280 286 283 280 271 284 279 15 334 339 343 329 348 350 349
22 341 344 333 358 223 166 148 89 336 104 55 331 278 100 65 323 292 269 264 266 284 279 260 240 216 264 343 302 263 265 280 289 38 321 307 0 339 335 340 336 322 326 338 337